Time,TemperatureF,DewpointF,PressureIn,WindDirection,WindDirectionDegrees,WindSpeedMPH,WindSpeedGustMPH,Humidity,HourlyPrecipIn,Conditions,Clouds,dailyrainin,SoftwareType,DateUTC
2013-02-23 00:00:00,29.9,25.1,30.41,ENE,68,0.0,0.0,82,0.00,,,0.00,VWS V14.01,2013-02-23 05:00:00,
2013-02-23 00:10:00,29.9,25.4,30.41,ENE,68,0.0,0.0,83,0.00,,,0.00,VWS V14.01,2013-02-23 05:10:00,
2013-02-23 00:20:00,30.0,25.5,30.41,ENE,68,0.0,0.0,83,0.00,,,0.00,VWS V14.01,2013-02-23 05:20:00,
2013-02-23 00:30:00,30.1,25.6,30.41,ENE,68,0.0,1.0,83,0.00,,,0.00,VWS V14.01,2013-02-23 05:30:00,
2013-02-23 00:40:00,30.1,25.6,30.40,ENE,68,0.0,0.0,83,0.00,,,0.00,VWS V14.01,2013-02-23 05:40:00,
2013-02-23 00:50:00,30.1,25.6,30.40,ENE,68,0.0,0.0,83,0.00,,,0.00,VWS V14.01,2013-02-23 05:50:00,
2013-02-23 01:00:00,30.1,25.6,30.39,ENE,68,0.0,0.0,83,0.00,,,0.00,VWS V14.01,2013-02-23 06:00:00,
2013-02-23 01:10:00,30.1,25.6,30.39,ENE,68,0.0,0.0,83,0.00,,,0.00,VWS V14.01,2013-02-23 06:10:00,
2013-02-23 01:20:00,30.1,25.9,30.39,ENE,68,0.0,0.0,84,0.00,,,0.00,VWS V14.01,2013-02-23 06:20:00,
2013-02-23 01:30:00,30.2,26.0,30.39,ENE,68,0.0,0.0,84,0.00,,,0.00,VWS V14.01,2013-02-23 06:30:00,
2013-02-23 01:40:00,30.2,25.7,30.39,ENE,68,0.0,0.0,83,0.00,,,0.00,VWS V14.01,2013-02-23 06:40:00,
2013-02-23 01:50:00,30.2,26.0,30.40,ENE,68,0.0,0.0,84,0.00,,,0.00,VWS V14.01,2013-02-23 06:50:00,
2013-02-23 02:00:00,30.3,26.3,30.39,ENE,68,0.0,0.0,85,0.00,,,0.00,VWS V14.01,2013-02-23 07:00:00,
2013-02-23 02:10:00,30.3,26.1,30.39,ENE,68,0.0,0.0,84,0.00,,,0.00,VWS V14.01,2013-02-23 07:10:00,
2013-02-23 02:20:00,30.3,25.8,30.39,ENE,68,0.0,0.0,83,0.00,,,0.00,VWS V14.01,2013-02-23 07:20:00,
2013-02-23 02:30:00,30.3,26.1,30.38,ENE,68,0.0,0.0,84,0.00,,,0.00,VWS V14.01,2013-02-23 07:30:00,
2013-02-23 02:40:00,30.4,26.1,30.37,ENE,68,0.0,0.0,84,0.00,,,0.00,VWS V14.01,2013-02-23 07:40:00,
2013-02-23 02:50:00,30.4,26.1,30.37,ENE,68,0.0,0.0,84,0.00,,,0.00,VWS V14.01,2013-02-23 07:50:00,
2013-02-23 03:00:00,30.5,26.2,30.37,ENE,68,0.0,0.0,84,0.00,,,0.00,VWS V14.01,2013-02-23 08:00:00,
2013-02-23 03:10:00,30.6,26.4,30.37,ENE,68,0.0,0.0,84,0.00,,,0.00,VWS V14.01,2013-02-23 08:10:00,
2013-02-23 03:20:00,30.6,26.4,30.37,ENE,68,0.0,0.0,84,0.00,,,0.00,VWS V14.01,2013-02-23 08:20:00,
2013-02-23 03:30:00,30.6,26.4,30.36,ENE,68,0.0,0.0,84,0.00,,,0.00,VWS V14.01,2013-02-23 08:30:00,
2013-02-23 03:40:00,30.7,26.7,30.36,ENE,68,0.0,0.0,85,0.00,,,0.00,VWS V14.01,2013-02-23 08:40:00,
2013-02-23 03:50:00,30.6,26.6,30.35,ENE,68,0.0,0.0,85,0.00,,,0.00,VWS V14.01,2013-02-23 08:50:00,
2013-02-23 04:00:00,30.6,26.4,30.35,ENE,68,0.0,0.0,84,0.00,,,0.00,VWS V14.01,2013-02-23 09:00:00,
2013-02-23 04:10:00,30.7,26.5,30.35,ENE,68,0.0,0.0,84,0.00,,,0.00,VWS V14.01,2013-02-23 09:10:00,
2013-02-23 04:20:00,30.8,26.5,30.36,ENE,68,0.0,0.0,84,0.00,,,0.00,VWS V14.01,2013-02-23 09:20:00,
2013-02-23 04:30:00,30.9,26.9,30.35,ENE,68,0.0,0.0,85,0.00,,,0.00,VWS V14.01,2013-02-23 09:30:00,
2013-02-23 04:40:00,30.8,26.5,30.34,ENE,68,0.0,0.0,84,0.00,,,0.00,VWS V14.01,2013-02-23 09:40:00,
2013-02-23 04:50:00,30.9,26.6,30.34,ENE,68,0.0,0.0,84,0.00,,,0.00,VWS V14.01,2013-02-23 09:50:00,
2013-02-23 05:00:00,31.0,26.5,30.34,ENE,68,0.0,0.0,83,0.00,,,0.00,VWS V14.01,2013-02-23 10:00:00,
2013-02-23 05:10:00,31.0,26.5,30.34,ENE,68,0.0,0.0,83,0.00,,,0.00,VWS V14.01,2013-02-23 10:10:00,
2013-02-23 05:20:00,31.0,26.5,30.34,ENE,68,0.0,0.0,83,0.00,,,0.00,VWS V14.01,2013-02-23 10:20:00,
2013-02-23 05:30:00,31.1,26.5,30.34,ENE,68,0.0,0.0,83,0.00,,,0.00,VWS V14.01,2013-02-23 10:30:00,
2013-02-23 05:40:00,31.1,26.3,30.33,ENE,68,0.0,0.0,82,0.00,,,0.00,VWS V14.01,2013-02-23 10:40:00,
2013-02-23 05:50:00,31.2,26.4,30.33,ENE,68,0.0,0.0,82,0.00,,,0.00,VWS V14.01,2013-02-23 10:50:00,
2013-02-23 06:00:00,31.3,26.8,30.34,ENE,68,0.0,0.0,83,0.00,,,0.00,VWS V14.01,2013-02-23 11:00:00,
2013-02-23 06:10:00,31.3,26.5,30.32,ENE,68,0.0,0.0,82,0.00,,,0.00,VWS V14.01,2013-02-23 11:10:00,
2013-02-23 06:20:00,31.4,26.5,30.32,ENE,68,0.0,0.0,82,0.00,,,0.00,VWS V14.01,2013-02-23 11:20:00,
2013-02-23 06:30:00,31.5,26.4,30.32,ENE,68,0.0,1.0,81,0.00,,,0.00,VWS V14.01,2013-02-23 11:30:00,
2013-02-23 06:40:00,31.6,26.8,30.32,ENE,68,0.0,0.0,82,0.00,,,0.00,VWS V14.01,2013-02-23 11:40:00,
2013-02-23 06:50:00,31.6,26.8,30.32,ENE,68,0.0,0.0,82,0.00,,,0.00,VWS V14.01,2013-02-23 11:50:00,
2013-02-23 07:00:00,31.7,27.1,30.33,ENE,68,0.0,0.0,83,0.00,,,0.00,VWS V14.01,2013-02-23 12:00:00,
2013-02-23 07:10:00,31.9,27.3,30.33,ENE,68,0.0,0.0,83,0.00,,,0.00,VWS V14.01,2013-02-23 12:10:00,
2013-02-23 07:20:00,31.9,27.3,30.33,ENE,68,0.0,0.0,83,0.00,,,0.00,VWS V14.01,2013-02-23 12:20:00,
2013-02-23 07:30:00,32.1,27.8,30.33,ENE,68,0.0,0.0,84,0.00,,,0.00,VWS V14.01,2013-02-23 12:30:00,
2013-02-23 07:40:00,32.4,28.1,30.33,ENE,68,0.0,1.0,84,0.00,,,0.00,VWS V14.01,2013-02-23 12:40:00,
2013-02-23 07:50:00,32.8,28.2,30.33,ENE,68,0.0,2.0,83,0.00,,,0.00,VWS V14.01,2013-02-23 12:50:00,
2013-02-23 08:00:00,33.2,28.6,30.32,East,90,0.0,2.0,83,0.00,,,0.00,VWS V14.01,2013-02-23 13:00:00,
2013-02-23 08:10:00,33.5,28.6,30.32,East,90,0.0,2.0,82,0.00,,,0.00,VWS V14.01,2013-02-23 13:10:00,
2013-02-23 08:20:00,33.8,28.9,30.33,South,180,1.0,4.0,82,0.00,,,0.00,VWS V14.01,2013-02-23 13:20:00,
2013-02-23 08:30:00,34.0,28.8,30.32,SSE,158,1.0,4.0,81,0.00,,,0.00,VWS V14.01,2013-02-23 13:30:00,
2013-02-23 08:40:00,34.2,29.0,30.32,SSW,202,1.0,6.0,81,0.00,,,0.00,VWS V14.01,2013-02-23 13:40:00,
2013-02-23 08:50:00,34.3,29.1,30.31,SE,135,1.0,4.0,81,0.00,,,0.00,VWS V14.01,2013-02-23 13:50:00,
2013-02-23 09:00:00,34.5,29.3,30.31,SE,135,1.0,4.0,81,0.00,,,0.00,VWS V14.01,2013-02-23 14:00:00,
2013-02-23 09:10:00,34.7,29.5,30.31,SE,135,1.0,5.0,81,0.00,,,0.00,VWS V14.01,2013-02-23 14:10:00,
2013-02-23 09:20:00,34.9,29.4,30.30,SE,135,1.0,6.0,80,0.00,,,0.00,VWS V14.01,2013-02-23 14:20:00,
2013-02-23 09:30:00,35.1,29.3,30.30,South,180,1.0,6.0,79,0.00,,,0.00,VWS V14.01,2013-02-23 14:30:00,
2013-02-23 09:40:00,35.4,29.5,30.30,SE,135,1.0,4.0,79,0.00,,,0.00,VWS V14.01,2013-02-23 14:40:00,
2013-02-23 09:50:00,35.6,29.4,30.29,SSE,158,2.0,6.0,78,0.00,,,0.00,VWS V14.01,2013-02-23 14:50:00,
2013-02-23 10:00:00,35.7,29.5,30.30,South,180,1.0,6.0,78,0.00,,,0.00,VWS V14.01,2013-02-23 15:00:00,
2013-02-23 10:10:00,36.0,29.5,30.29,South,180,2.0,6.0,77,0.00,,,0.00,VWS V14.01,2013-02-23 15:10:00,
2013-02-23 10:20:00,36.2,29.7,30.29,South,180,2.0,6.0,77,0.00,,,0.00,VWS V14.01,2013-02-23 15:20:00,
2013-02-23 10:30:00,36.3,29.8,30.28,SE,135,2.0,6.0,77,0.00,,,0.00,VWS V14.01,2013-02-23 15:30:00,
2013-02-23 10:40:00,36.4,29.6,30.28,South,180,3.0,8.0,76,0.00,,,0.00,VWS V14.01,2013-02-23 15:40:00,
2013-02-23 10:50:00,36.7,29.5,30.27,South,180,2.0,7.0,75,0.00,,,0.00,VWS V14.01,2013-02-23 15:50:00,
2013-02-23 11:00:00,36.8,29.6,30.27,South,180,2.0,7.0,75,0.00,,,0.00,VWS V14.01,2013-02-23 16:00:00,
2013-02-23 11:10:00,37.1,29.9,30.26,SE,135,1.0,5.0,75,0.00,,,0.00,VWS V14.01,2013-02-23 16:10:00,
2013-02-23 11:20:00,37.3,29.8,30.26,SE,135,2.0,7.0,74,0.00,,,0.00,VWS V14.01,2013-02-23 16:20:00,
2013-02-23 11:30:00,37.5,29.6,30.25,SE,135,2.0,7.0,73,0.00,,,0.00,VWS V14.01,2013-02-23 16:30:00,
2013-02-23 11:40:00,37.7,29.8,30.25,SE,135,2.0,6.0,73,0.00,,,0.00,VWS V14.01,2013-02-23 16:40:00,
2013-02-23 11:50:00,37.7,29.8,30.25,ESE,112,3.0,12.0,73,0.00,,,0.00,VWS V14.01,2013-02-23 16:50:00,
2013-02-23 12:00:00,37.7,29.8,30.24,ESE,112,2.0,7.0,73,0.00,,,0.00,VWS V14.01,2013-02-23 17:00:00,
2013-02-23 12:10:00,37.7,30.2,30.23,South,180,2.0,6.0,74,0.00,,,0.00,VWS V14.01,2013-02-23 17:10:00,
2013-02-23 12:20:00,37.8,29.9,30.23,South,180,2.0,11.0,73,0.00,,,0.00,VWS V14.01,2013-02-23 17:20:00,
2013-02-23 12:30:00,37.9,30.0,30.23,South,180,1.0,6.0,73,0.00,,,0.00,VWS V14.01,2013-02-23 17:30:00,
2013-02-23 12:40:00,38.1,30.2,30.22,South,180,1.0,5.0,73,0.00,,,0.00,VWS V14.01,2013-02-23 17:40:00,
2013-02-23 12:50:00,38.3,30.1,30.22,SE,135,2.0,7.0,72,0.00,,,0.00,VWS V14.01,2013-02-23 17:50:00,
2013-02-23 13:00:00,38.1,29.9,30.22,South,180,4.0,9.0,72,0.00,,,0.00,VWS V14.01,2013-02-23 18:00:00,
2013-02-23 13:10:00,38.1,30.2,30.21,SSE,158,1.0,6.0,73,0.00,,,0.00,VWS V14.01,2013-02-23 18:10:00,
2013-02-23 13:20:00,38.1,30.2,30.21,ESE,112,3.0,9.0,73,0.00,,,0.00,VWS V14.01,2013-02-23 18:20:00,
2013-02-23 13:30:00,37.9,30.4,30.22,SSE,158,3.0,12.0,74,0.00,,,0.00,VWS V14.01,2013-02-23 18:30:00,
2013-02-23 13:40:00,37.9,30.4,30.21,SE,135,3.0,9.0,74,0.00,,,0.00,VWS V14.01,2013-02-23 18:40:00,
2013-02-23 13:50:00,37.9,30.4,30.20,SSE,158,3.0,7.0,74,0.00,,,0.00,VWS V14.01,2013-02-23 18:50:00,
2013-02-23 14:00:00,37.9,30.4,30.19,SSE,158,1.0,6.0,74,0.00,,,0.00,VWS V14.01,2013-02-23 19:00:00,
2013-02-23 14:10:00,38.0,30.5,30.20,South,180,1.0,5.0,74,0.00,,,0.00,VWS V14.01,2013-02-23 19:10:00,
2013-02-23 14:20:00,37.9,30.7,30.20,SE,135,1.0,6.0,75,0.00,,,0.00,VWS V14.01,2013-02-23 19:20:00,
2013-02-23 14:30:00,37.8,30.3,30.20,South,180,1.0,7.0,74,0.00,,,0.00,VWS V14.01,2013-02-23 19:30:00,
2013-02-23 14:40:00,37.8,30.3,30.20,ESE,112,1.0,4.0,74,0.00,,,0.00,VWS V14.01,2013-02-23 19:40:00,
2013-02-23 14:50:00,37.7,30.2,30.20,ESE,112,1.0,5.0,74,0.00,,,0.00,VWS V14.01,2013-02-23 19:50:00,
2013-02-23 15:00:00,37.7,30.2,30.19,ESE,112,2.0,6.0,74,0.00,,,0.00,VWS V14.01,2013-02-23 20:00:00,
2013-02-23 15:10:00,37.8,30.6,30.19,South,180,3.0,9.0,75,0.00,,,0.00,VWS V14.01,2013-02-23 20:10:00,
2013-02-23 15:20:00,37.4,30.9,30.18,SSE,158,2.0,6.0,77,0.00,,,0.00,VWS V14.01,2013-02-23 20:20:00,
2013-02-23 15:30:00,37.2,31.3,30.18,SE,135,2.0,5.0,79,0.00,,,0.00,VWS V14.01,2013-02-23 20:30:00,
2013-02-23 15:40:00,37.0,31.7,30.18,SE,135,1.0,6.0,81,0.00,,,0.00,VWS V14.01,2013-02-23 20:40:00,
2013-02-23 15:50:00,36.6,31.6,30.17,SE,135,2.0,5.0,82,0.00,,,0.00,VWS V14.01,2013-02-23 20:50:00,
2013-02-23 16:00:00,36.4,31.7,30.17,ESE,112,1.0,5.0,83,0.00,,,0.00,VWS V14.01,2013-02-23 21:00:00,
2013-02-23 16:10:00,36.1,31.7,30.17,ESE,112,0.0,5.0,84,0.00,,,0.00,VWS V14.01,2013-02-23 21:10:00,
2013-02-23 16:20:00,35.7,31.6,30.16,East,90,1.0,5.0,85,0.00,,,0.00,VWS V14.01,2013-02-23 21:20:00,
2013-02-23 16:30:00,35.3,31.5,30.15,East,90,0.0,2.0,86,0.00,,,0.00,VWS V14.01,2013-02-23 21:30:00,
2013-02-23 16:40:00,34.9,31.4,30.16,East,90,0.0,4.0,87,0.00,,,0.00,VWS V14.01,2013-02-23 21:40:00,
2013-02-23 16:50:00,34.5,31.3,30.17,East,90,0.0,1.0,88,0.01,,,0.01,VWS V14.01,2013-02-23 21:50:00,
2013-02-23 17:00:00,34.3,31.4,30.15,East,90,0.0,2.0,89,0.01,,,0.01,VWS V14.01,2013-02-23 22:00:00,
2013-02-23 17:10:00,34.1,31.2,30.15,East,90,0.0,1.0,89,0.01,,,0.01,VWS V14.01,2013-02-23 22:10:00,
2013-02-23 17:20:00,34.0,31.4,30.15,East,90,0.0,1.0,90,0.01,,,0.01,VWS V14.01,2013-02-23 22:20:00,
2013-02-23 17:30:00,33.8,31.2,30.14,East,90,0.0,0.0,90,0.01,,,0.01,VWS V14.01,2013-02-23 22:30:00,
2013-02-23 17:40:00,33.5,30.9,30.14,East,90,0.0,0.0,90,0.01,,,0.01,VWS V14.01,2013-02-23 22:40:00,
2013-02-23 17:50:00,33.2,30.9,30.13,East,90,0.0,0.0,91,0.01,,,0.01,VWS V14.01,2013-02-23 22:50:00,
2013-02-23 18:00:00,33.0,30.7,30.13,East,90,0.0,1.0,91,0.00,,,0.01,VWS V14.01,2013-02-23 23:00:00,
2013-02-23 18:10:00,32.9,30.8,30.14,East,90,0.0,0.0,92,0.00,,,0.01,VWS V14.01,2013-02-23 23:10:00,
2013-02-23 18:20:00,32.9,30.8,30.13,East,90,0.0,0.0,92,0.00,,,0.01,VWS V14.01,2013-02-23 23:20:00,
2013-02-23 18:30:00,32.9,30.8,30.12,East,90,0.0,0.0,92,0.00,,,0.01,VWS V14.01,2013-02-23 23:30:00,
2013-02-23 18:40:00,32.9,30.8,30.12,East,90,0.0,0.0,92,0.00,,,0.01,VWS V14.01,2013-02-23 23:40:00,
2013-02-23 18:50:00,32.8,30.7,30.12,East,90,0.0,0.0,92,0.00,,,0.01,VWS V14.01,2013-02-23 23:50:00,
2013-02-23 19:00:00,32.9,30.8,30.11,East,90,0.0,0.0,92,0.00,,,0.01,VWS V14.01,2013-02-24 00:00:00,
2013-02-23 19:10:00,32.9,31.1,30.11,East,90,0.0,0.0,93,0.01,,,0.02,VWS V14.01,2013-02-24 00:10:00,
2013-02-23 19:20:00,32.9,31.1,30.11,East,90,0.0,0.0,93,0.01,,,0.02,VWS V14.01,2013-02-24 00:20:00,
2013-02-23 19:30:00,32.9,31.1,30.10,East,90,0.0,1.0,93,0.01,,,0.02,VWS V14.01,2013-02-24 00:30:00,
2013-02-23 19:40:00,33.0,31.2,30.09,East,90,0.0,1.0,93,0.01,,,0.02,VWS V14.01,2013-02-24 00:40:00,
2013-02-23 19:50:00,33.0,31.2,30.10,East,90,0.0,1.0,93,0.02,,,0.03,VWS V14.01,2013-02-24 00:50:00,
2013-02-23 20:00:00,33.0,31.2,30.09,East,90,0.0,1.0,93,0.03,,,0.04,VWS V14.01,2013-02-24 01:00:00,
2013-02-23 20:10:00,33.0,31.2,30.08,East,90,0.0,3.0,93,0.03,,,0.04,VWS V14.01,2013-02-24 01:10:00,
2013-02-23 20:20:00,33.0,31.2,30.08,East,90,0.0,0.0,93,0.03,,,0.05,VWS V14.01,2013-02-24 01:20:00,
2013-02-23 20:30:00,33.1,31.3,30.08,East,90,0.0,1.0,93,0.04,,,0.06,VWS V14.01,2013-02-24 01:30:00,
2013-02-23 20:40:00,33.1,31.3,30.08,East,90,0.0,1.0,93,0.04,,,0.06,VWS V14.01,2013-02-24 01:40:00,
2013-02-23 20:50:00,33.1,31.3,30.08,East,90,0.0,2.0,93,0.05,,,0.07,VWS V14.01,2013-02-24 01:50:00,
2013-02-23 21:00:00,33.1,31.6,30.07,East,90,0.0,1.0,94,0.05,,,0.08,VWS V14.01,2013-02-24 02:00:00,
2013-02-23 21:10:00,33.1,31.6,30.06,East,90,0.0,0.0,94,0.06,,,0.10,VWS V14.01,2013-02-24 02:10:00,
2013-02-23 21:20:00,33.2,31.7,30.05,East,90,0.0,2.0,94,0.07,,,0.11,VWS V14.01,2013-02-24 02:20:00,
2013-02-23 21:30:00,33.2,31.7,30.05,ENE,68,0.0,3.0,94,0.07,,,0.12,VWS V14.01,2013-02-24 02:30:00,
2013-02-23 21:40:00,33.2,31.7,30.04,ENE,68,0.0,1.0,94,0.08,,,0.14,VWS V14.01,2013-02-24 02:40:00,
2013-02-23 21:50:00,33.2,31.7,30.03,ENE,68,0.0,1.0,94,0.08,,,0.14,VWS V14.01,2013-02-24 02:50:00,
2013-02-23 22:00:00,33.3,31.8,30.02,NNE,22,0.0,5.0,94,0.09,,,0.16,VWS V14.01,2013-02-24 03:00:00,
2013-02-23 22:10:00,33.4,31.9,30.01,NNE,22,0.0,2.0,94,0.09,,,0.17,VWS V14.01,2013-02-24 03:10:00,
2013-02-23 22:20:00,33.4,31.9,30.00,NNE,22,0.0,2.0,94,0.08,,,0.18,VWS V14.01,2013-02-24 03:20:00,
2013-02-23 22:30:00,33.6,32.1,30.00,ENE,68,0.0,4.0,94,0.07,,,0.18,VWS V14.01,2013-02-24 03:30:00,
2013-02-23 22:40:00,33.7,32.2,29.99,NNE,22,0.0,3.0,94,0.07,,,0.19,VWS V14.01,2013-02-24 03:40:00,
2013-02-23 22:50:00,33.8,32.3,29.99,NE,45,1.0,3.0,94,0.06,,,0.20,VWS V14.01,2013-02-24 03:50:00,
2013-02-23 23:00:00,33.9,32.4,29.99,NE,45,0.0,6.0,94,0.07,,,0.21,VWS V14.01,2013-02-24 04:00:00,
2013-02-23 23:10:00,34.0,32.5,29.98,NE,45,0.0,2.0,94,0.06,,,0.22,VWS V14.01,2013-02-24 04:10:00,
2013-02-23 23:20:00,34.1,32.6,29.97,NE,45,1.0,6.0,94,0.06,,,0.23,VWS V14.01,2013-02-24 04:20:00,
2013-02-23 23:30:00,34.3,32.8,29.97,NE,45,1.0,4.0,94,0.07,,,0.25,VWS V14.01,2013-02-24 04:30:00,
2013-02-23 23:40:00,34.4,32.9,29.96,NNE,22,1.0,4.0,94,0.08,,,0.26,VWS V14.01,2013-02-24 04:40:00,
2013-02-23 23:50:00,34.5,33.0,29.97,NE,45,0.0,3.0,94,0.09,,,0.28,VWS V14.01,2013-02-24 04:50:00,